sat.trackr.live / text

‹ back to catalog

STARLINK-31480

NORAD 59306 · 2024-056L

PAYLOAD ACTIVE UNKNOWN

§ Identity

Operator
Country
US
Launch date
2024-03-24
Launch site
AFETR
Launch vehicle
Mass (kg)
RCS (m²)

Purposes: comms

External: N2YO · Heavens-Above · Gunter

§ Orbital elements

Epoch: 2026-09-20T04:48:30.229632Z

Period
94.27 min
Inclination
43.0017°
Eccentricity
0.0001157
Mean motion
15.27577055 rev/d
Perigee alt
482.3 km
Apogee alt
483.9 km
Semi-major
6,861.2 km
B*
2.7113e-5
RAAN
212.0935°
Arg perigee
269.4085°
Mean anomaly
90.6634°
Rev number
14,090

§ Raw data

STARLINK-314801 59306U 24056L   26263.20034988  .00000484  00000+0  27113-4 0  99962 59306  43.0017 212.0935 0001157 269.4085  90.6634 15.27577055140906

JSON: /api/v1/satellites/59306 · /tle

For live sub-satellite position, see the globe view (requires WebGL).

§ Visibility from observer

Set your observer location to see the next 7 days of passes ≥ 10°. The values pass through the URL so the page stays shareable.

No JS? Fill the form by hand. The geolocation button needs JavaScript.